Weather History for Coleman, TX

Change the Weather History Date:

Friday, September 20, 2013

  Actual Average (KABI) Record (KABI)
Temperature  
Mean Temperature 68 °F 74 °F  
Max Temperature 71 °F 85 °F 101 °F (1954)
Min Temperature 66 °F 63 °F 41 °F (1971)
Degree Days  
Heating Degree Days 0 1  
Month to date heating degree days 1  
Since 1 July heating degree days 1  
Cooling Degree Days 4 10  
Month to date cooling degree days 247  
Year to date cooling degree days 2192  
Growing Degree Days 18 (Base 50)    
Moisture  
Dew Point 67 °F    
Average Humidity 92    
Maximum Humidity 95    
Minimum Humidity 89    
Precipitation  
Precipitation 1.49 in 0.06 in 1.90 in (1896)
Month to date precipitation 1.51  
Year to date precipitation 18.47  
Sea Level Pressure  
Sea Level Pressure 29.95 in    
Wind  
Wind Speed 9 mph (NNE)    
Max Wind Speed 25 mph    
Max Gust Speed 36 mph    
Visibility 9 miles    
Events Rain    
T = Trace of Precipitation, MM = Missing Value Source: NWS Daily Summary

Daily Weather History Graph

Daily Weather History Graph

Search for Another Location

Airport:

Trip Planner

Search our weather history database for the weather conditions in past years. The results will help you decide how hot, cold, wet, or windy it might be!

Date:

Astronomy

Sep. 20, 2013 Rise Set
Actual Time 7:24 AM CDT 7:36 PM CDT
Civil Twilight 7:00 AM CDT 8:00 PM CDT
Nautical Twilight 6:31 AM CDT 8:29 PM CDT
Astronomical Twilight 6:03 AM CDT 8:57 PM CDT
Moon 8:20 PM CDT (9/20) 8:33 AM CDT (9/20)
Length of Visible Light 13h 00m
Length of Day
12h 11m
Full, 98% of the Moon is Illuminated
Sep 20
Full
Sep 26
Last Quarter
Oct 4
New
Oct 11
First Quarter
Oct 18
Full

Hourly Weather History & Observations

Time (CDT) Temp. Dew Point Humidity Pressure Visibility Wind Dir Wind Speed Gust Speed Precip Events Conditions
12:15 AM 71.8 °F 69.8 °F 93% 29.96 in 7.0 mi East 6.9 mph - 0.02 in Rain Light Rain
12:35 AM 71.6 °F 69.8 °F 94% 29.95 in 10.0 mi East 8.1 mph - 0.03 in   Drizzle
12:55 AM 71.2 °F 69.3 °F 93% 29.94 in 10.0 mi East 5.8 mph - 0.04 in Rain Light Rain
1:15 AM 71.6 °F 69.8 °F 94% 29.94 in 10.0 mi East 3.5 mph - 0.01 in Rain Rain
1:35 AM 71.2 °F 69.4 °F 94% 29.93 in 10.0 mi ENE 5.8 mph - 0.02 in Rain Light Rain
1:55 AM 71.2 °F 69.4 °F 94% 29.94 in 10.0 mi East 5.8 mph - 0.02 in   Light Drizzle
2:15 AM 71.2 °F 69.4 °F 94% 29.94 in 10.0 mi East 5.8 mph - N/A   Overcast
2:35 AM 71.2 °F 69.4 °F 94% 29.93 in 10.0 mi East 5.8 mph - N/A   Overcast
2:55 AM 71.2 °F 69.4 °F 94% 29.92 in 10.0 mi East 4.6 mph - N/A   Overcast
3:15 AM 71.4 °F 69.6 °F 94% 29.92 in 10.0 mi ENE 3.5 mph - 0.01 in   Overcast
3:35 AM 71.6 °F 69.8 °F 94% 29.91 in 10.0 mi NE 5.8 mph - 0.01 in   Overcast
3:55 AM 71.2 °F 69.4 °F 94% 29.91 in 10.0 mi NE 4.6 mph - 0.01 in   Overcast
4:15 AM 71.2 °F 69.4 °F 94% 29.90 in 10.0 mi NE 4.6 mph - N/A   Overcast
4:35 AM 71.2 °F 69.4 °F 94% 29.90 in 7.0 mi NE 5.8 mph - 0.01 in Rain Light Rain
4:55 AM 71.2 °F 69.4 °F 94% 29.90 in 10.0 mi Calm Calm - 0.02 in   Light Drizzle
5:15 AM 71.1 °F 69.3 °F 94% 29.90 in 4.0 mi ENE 6.9 mph - 0.10 in Rain Heavy Rain
5:35 AM 71.2 °F 69.4 °F 94% 29.90 in 7.0 mi NE 4.6 mph - 0.14 in Rain Rain
5:55 AM 71.2 °F 69.4 °F 94% 29.90 in 7.0 mi NNE 5.8 mph - 0.17 in Rain Rain
6:15 AM 71.2 °F 69.8 °F 95% 29.91 in 7.0 mi North 5.8 mph - 0.06 in Rain Heavy Rain
6:35 AM 70.3 °F 68.5 °F 94% 29.90 in 2.0 mi NNE 13.8 mph - 0.43 in Rain Heavy Rain
6:55 AM 68.9 °F 67.3 °F 95% 29.91 in 4.0 mi North 15.0 mph - 0.55 in Rain Heavy Rain
7:15 AM 68.2 °F 66.6 °F 95% 29.91 in 5.0 mi North 9.2 mph - 0.08 in Rain Heavy Rain
7:35 AM 68.0 °F 66.2 °F 94% 29.93 in 5.0 mi NNW 3.5 mph - 0.19 in Rain Heavy Rain
7:55 AM 68.0 °F 66.2 °F 94% 29.93 in 2.0 mi Calm Calm - 0.31 in Rain Heavy Rain
8:15 AM 68.0 °F 66.4 °F 95% 29.93 in 3.0 mi North 3.5 mph - 0.07 in Rain Heavy Rain
8:35 AM 68.2 °F 66.6 °F 95% 29.93 in 5.0 mi NNW 5.8 mph - 0.14 in Rain Rain
8:55 AM 68.4 °F 66.7 °F 95% 29.94 in 10.0 mi North 10.4 mph - 0.16 in Rain Light Rain
9:15 AM 68.9 °F 67.1 °F 94% 29.94 in 10.0 mi North 12.7 mph - 0.01 in Rain Light Rain
9:35 AM 67.8 °F 64.9 °F 90% 29.95 in 7.0 mi North 25.3 mph 35.7 mph 0.03 in Rain Light Rain
9:55 AM 67.1 °F 64.6 °F 92% 29.96 in 10.0 mi North 15.0 mph 25.3 mph 0.03 in Rain Light Rain
10:15 AM 67.3 °F 64.9 °F 92% 29.95 in 10.0 mi North 18.4 mph 21.9 mph N/A Rain Light Rain
10:35 AM 67.5 °F 64.9 °F 92% 29.96 in 10.0 mi North 18.4 mph - 0.01 in Rain Light Rain
10:55 AM 67.1 °F 64.2 °F 90% 29.96 in 10.0 mi NNE 17.3 mph - 0.02 in Rain Light Rain
11:15 AM 66.7 °F 63.9 °F 90% 29.97 in 10.0 mi NNE 11.5 mph - N/A Rain Light Rain
11:35 AM 67.1 °F 64.0 °F 90% 29.97 in 10.0 mi NE 13.8 mph - N/A Rain Rain
11:55 AM 67.1 °F 63.9 °F 89% 29.97 in 10.0 mi NNE 13.8 mph - 0.01 in Rain Rain
12:15 PM 67.5 °F 64.9 °F 92% 29.97 in 10.0 mi NNE 15.0 mph 18.4 mph 0.01 in Rain Light Rain
12:35 PM 67.8 °F 64.8 °F 90% 29.98 in 10.0 mi North 12.7 mph 19.6 mph 0.02 in Rain Rain
12:55 PM 68.0 °F 65.3 °F 91% 29.98 in 10.0 mi North 11.5 mph - 0.03 in Rain Light Rain
1:15 PM 68.0 °F 65.1 °F 90% 29.98 in 10.0 mi North 12.7 mph - 0.01 in Rain Rain
1:35 PM 68.0 °F 65.3 °F 91% 29.97 in 10.0 mi North 15.0 mph - 0.02 in Rain Light Rain
1:55 PM 68.0 °F 65.5 °F 92% 29.96 in 10.0 mi NNE 15.0 mph - 0.03 in Rain Light Rain
2:15 PM 68.2 °F 65.7 °F 92% 29.95 in 7.0 mi North 16.1 mph - 0.01 in Rain Rain
2:35 PM 68.2 °F 66.0 °F 93% 29.95 in 10.0 mi North 13.8 mph 18.4 mph 0.02 in Rain Light Rain
2:55 PM 68.4 °F 66.2 °F 93% 29.94 in 10.0 mi North 17.3 mph 21.9 mph 0.03 in Rain Light Rain
3:15 PM 68.9 °F 66.6 °F 92% 29.94 in 7.0 mi North 15.0 mph - 0.01 in Rain Rain
3:35 PM 69.1 °F 67.1 °F 93% 29.94 in 10.0 mi North 11.5 mph - 0.03 in Rain Light Rain
3:55 PM 69.8 °F 67.1 °F 91% 29.94 in 10.0 mi NNE 10.4 mph - 0.03 in Rain Light Rain
4:15 PM 70.0 °F 67.5 °F 92% 29.93 in 10.0 mi NNE 11.5 mph - 0.01 in Rain Light Rain
4:35 PM 69.8 °F 67.1 °F 91% 29.93 in 10.0 mi NNE 11.5 mph - 0.01 in Rain Rain
4:55 PM 69.8 °F 66.7 °F 90% 29.93 in 10.0 mi NNE 12.7 mph - 0.01 in Rain Light Rain
5:15 PM 69.8 °F 66.6 °F 89% 29.93 in 10.0 mi NNE 13.8 mph - N/A Rain Rain
5:35 PM 69.8 °F 66.9 °F 91% 29.94 in 10.0 mi NNE 10.4 mph - N/A Rain Light Rain
5:55 PM 69.4 °F 66.6 °F 91% 29.94 in 10.0 mi NNE 9.2 mph - 0.01 in Rain Light Rain
6:15 PM 69.3 °F 66.4 °F 91% 29.95 in 10.0 mi North 12.7 mph 17.3 mph N/A Rain Light Rain
6:35 PM 68.9 °F 66.2 °F 91% 29.94 in 7.0 mi NNE 11.5 mph - 0.01 in Rain Rain
6:55 PM 68.9 °F 66.2 °F 91% 29.95 in 10.0 mi North 11.5 mph - 0.01 in   Overcast
7:15 PM 69.1 °F 66.0 °F 90% 29.95 in 10.0 mi North 12.7 mph - N/A   Overcast
7:35 PM 69.1 °F 66.0 °F 90% 29.96 in 7.0 mi North 12.7 mph - N/A Rain Light Rain
7:55 PM 68.9 °F 65.7 °F 89% 29.96 in 10.0 mi NNE 11.5 mph - N/A   Mostly Cloudy
8:15 PM 68.9 °F 65.5 °F 89% 29.96 in 10.0 mi North 11.5 mph - N/A   Scattered Clouds
8:35 PM 68.5 °F 65.3 °F 89% 29.96 in 10.0 mi North 10.4 mph 17.3 mph N/A   Mostly Cloudy
8:55 PM 68.4 °F 65.3 °F 90% 29.97 in 10.0 mi North 11.5 mph - N/A   Mostly Cloudy
9:15 PM 68.2 °F 65.3 °F 90% 29.98 in 10.0 mi North 10.4 mph - N/A   Scattered Clouds
9:35 PM 68.5 °F 65.5 °F 90% 29.99 in 10.0 mi North 9.2 mph - N/A   Mostly Cloudy
9:55 PM 68.5 °F 65.3 °F 89% 29.99 in 10.0 mi North 9.2 mph - N/A   Overcast
10:15 PM 68.5 °F 65.3 °F 89% 29.99 in 10.0 mi North 10.4 mph - N/A   Overcast
10:35 PM 68.4 °F 65.1 °F 89% 30.00 in 10.0 mi NNE 11.5 mph 16.1 mph N/A   Overcast
10:55 PM 68.4 °F 65.3 °F 90% 30.01 in 10.0 mi North 10.4 mph - N/A   Overcast
11:15 PM 68.2 °F 65.1 °F 90% 30.01 in 10.0 mi North 12.7 mph - N/A   Overcast
11:35 PM 67.8 °F 64.8 °F 90% 30.01 in 10.0 mi North 11.5 mph 16.1 mph N/A   Overcast
11:55 PM 67.3 °F 64.4 °F 90% 30.01 in 10.0 mi North 11.5 mph 16.1 mph N/A   Overcast